Timeline UpdatesTrip UpdatesNews PostsPvt PostsTravel TipsAdmin PostsConv PostsFollowed PostsChat RequestsBlog PostsPNR Posts

Disclaimer
Search
 
 
Fri Sep 19, 2014 07:17:11 ISTHomeTrainsΣChainsAtlasPNRForumGalleryNewsFAQTripsMembersLoginFeedback
No Recent News for this Train
Other Trains in the News **new
Latest...
⇐ Return Journey: Train# 54378

54377/Prayag-Bareilly Passenger (UnReserved)

Time-Table HAS CHANGED.
Sep 03 (9:27AM)
Change Departure Station:
Change Arrival Station:
Post a Train Travel TipPost a Train Travel Tip **new
Post a Comment/Question/Picture/VideoPost a Comment/Question/Picture/Video
Pantry/Catering
???
RSA - Rake Sharing
Rake/Coach Composition
Loco
News    PNR    Forum    Time-Table    Availability    Fare Chart    Map    Arr/Dep History    Trips    Gallery    ΣChains    X/O    Timeline    
Travel Time: 12h 16m    49 halts    Distance: 352 km    Avg Speed: 28 km/hr
Type: Passenger
Zone: NR/Northern
Departs @ 01:03
Platform# ???
SMTWTFS
Atrampur/ARP 
Arrives @ 13:19
Platform# ???
SMTWTFS
Bahadurpur Halt/BHDH 

49 halts. 51 intermediate Stations between Atrampur and Bahadurpur Halt

Show ALL intermediate Stations  Show Old Time-Table

#CodeStation NameX/OArrivesAvgDepartsAvgHaltPFDay#KmSpeedElevZoneAddress
1ARPAtrampur»  02:25 01:01-02:26 01:03-1 2m--10.053105mNRAtrampur Railway Station, Uttar Pradesh
2RMCRam Chaura Road  02:34 01:11-02:35 01:13-1 2m--17.052103mNRAnapur - Mansurabad Road, Uttar Pradesh
3LGOLalgopalGanj  02:43 01:21-02:44 01:23-1 2m--114.055104mNRLal Gopalganj, Uttar Pradesh
4BHDRBhadri  02:52 01:31-02:53 01:33-1 2m--121.343106mNRNational Highway 24B, Uttar Pradesh
5KHNMKunda Harnamganj (2)  03:02 01:43-03:03 01:45-1 2m--128.547110mNRKunda, Uttar Pradesh
6GRMRGarhi Manikpur  03:15 02:00-03:16 02:02-1 2m--140.339113mNRGarhi Manikpur, Uttar Pradesh
7PQNPariawan Kalakankar Road  03:25 02:13-03:26 02:15-1 2m--147.443115mNRPwn Klaknder Rd, Uttar Pradesh
8ARKAArkha  03:35 02:27-03:36 02:29-1 2m--156.015115mNRLucknow Allahabad Rd, Uttar Pradesh
9UCRUnchahar Junction  03:44 02:38-03:45 02:40-1 2m--158.352116mNRUnchahar, Uttar Pradesh
10RCPRamachandrapur  03:56 02:53-03:57 02:55-1 2m--169.528114mNRLucknow Allahabad Rd, Uttar Pradesh
11LMNLachhmanpurX  04:05 03:08-04:06 03:10-1 2m--175.532119mNRUnchahar, Uttar Pradesh
12DYPDaryapur Junction  04:19 03:38-04:20 03:40-1 2m--190.218115mNRNational Highway 24B, Uttar Pradesh
13RBLRae Bareli Junction (4)X  04:35 04:00-04:40 04:33-5 33m--196.246116mNRRaebareli, Uttar Pradesh
14GANGGangaGanj (2)  04:51 04:43-04:52 04:45-1 2m--1103.860118mNRBachhrawan, Uttar Pradesh
15HCPHarchandpur (3)  04:58 04:52-04:59 04:54-1 2m--1110.942118mNRRae Bareli, Uttar Pradesh
16KVGKundanganj (2)  05:07 05:03-05:08 05:05-1 2m--1117.252119mNRHarchandpur, Uttar Pradesh
17BCNBachhrawan (2)X  05:19 05:16-05:20 05:18-1 2m--1126.814124mNRLucknow, Uttar Pradesh
18SAGRShrirajnagar (1)X  05:44 05:43-05:45-1 2m11132.520122mNRMohanlalGanj, Uttar Pradesh
19NHNNigohan (1)X  06:04 06:03-06:05-1 2m11138.519120mNRLucknow, Uttar Pradesh
20KKAHKankaha (1)  06:28 06:27-06:29-1 2m11145.440125mNRBachhrawan, Uttar Pradesh
21MLJMohanlalGanj (1)  06:42 06:41-06:43-1 2m11153.432124mNRMohanlalganj, Uttar Pradesh
22UTRUtraitia Junction (2)  07:00 06:59-07:01-1 2m--1161.919124mNRLucknow, Uttar Pradesh
23BHAWBlock Hut A new halt!!X  07:15-07:17-2m--1166.419121mNRLucknow, Uttar Pradesh
24LBHDilkusha Cabin new halt!!  07:28-07:30-2m--1169.917116mNRLucknow, Uttar Pradesh
25LKOLucknow Charbagh NR (9)XO  07:45-08:20-35m51174.023123mNR226004, Uttar Pradesh
26AMGAlamnagar (3)X  08:37 08:38-08:38 08:39-1m--1181.165126mNRLucknow, Uttar Pradesh
27KKJKakori (3)X  08:47 08:46-08:48-1 2m--1188.664129mNRSH 25, Uttar Pradesh
28MLDMalihabadX  08:58 08:57-08:59-1 2m--1198.249130mNRMalihabad, Uttar Pradesh
29DILDilawarnagarX  09:07 09:06-09:08-1 2m--1203.946133mNRSH 25, Uttar Pradesh
30RBDRahimabadX  09:17 09:18-09:18 09:20-1 2m--1211.566132mNRSH 25, Uttar Pradesh
31SANSandila (3)  09:29 09:30-09:30 09:32-1 2m--1222.545132mNRSandila, Uttar Pradesh
32UTAUmar TaliO  09:36 09:39-09:37 09:41-1 2m--1227.848135mNRHardoi, Uttar Pradesh
33DLQDalelnagar  09:46 09:49-09:47 09:51-1 2m--1234.252136mNRSH 25, Uttar Pradesh
34BLMBalamau Junction (4)X  09:53 10:01-09:58 10:06-5m--1242.958139mNRBalamau, Uttar Pradesh
35BGHBaghauliX  10:11 10:15-10:12 10:17-1 2m--1251.652141mNRsharda nehar, Uttar Pradesh
36MSTMasit  10:21 10:25-10:22 10:27-1 2m--1258.556141mNRSH 25, Uttar Pradesh
37KARKarnaX  10:31 10:35-10:32 10:37-1 2m--1266.059143mNRHardoi, Uttar Pradesh
38HRIHardoi (5)  10:43 10:47-10:44 10:52-1 5m--1275.956146mNRHardoi, Uttar Pradesh
39KUFKaurhaX  10:57 11:01-10:58 11:03-1 2m--1284.359148mNRSH 25, Uttar Pradesh
40BEGBehtagokul  11:08 11:12-11:09 11:14-1 2m--1293.155152mNRBehtagokul, Uttar Pradesh
41TDPTodarpur  11:17 11:21-11:18 11:23-1 2m--1299.631147mNRSH 25, Uttar Pradesh
42SHRMSharmaX  11:24 11:28-11:25 11:29-1m--1302.251150mNRSH 25, Uttar Pradesh
43AJIAnjhi ShahabadX  11:32 11:36-11:33 11:38-1 2m--1308.154148mNRAnjhi Shahabad, Uttar Pradesh
44AIGAlgawan  11:41 11:45-11:42 11:47-1 2m--1314.464152mNRAlgawan, Uttar Pradesh
45KHKahiliya  11:51 11:55-11:52 11:57-1 2m--1322.944152mNRSH 25, Uttar Pradesh
46PRPMPt Ram Prasad Bismil new halt!!  12:03-12:04-1m--1327.38154mNRState Highway 25, Uttar Pradesh
47ROZARoza Junction (4)X  12:36 12:37-12:37 12:39-1 2m--1331.548156mNRShahjahanpur, Uttar Pradesh
48SXKShahjahanpur CourtX  12:45 12:46-12:46 12:47-1m--1337.17160mNRShahjahanpur, Uttar Pradesh
49SPNShahjahanpur Junction (3)X  12:55-13:00-5m--1338.156156mNRShahjahanpur, Uttar Pradesh
50BTRABanthra  13:09-13:10 13:11-1 2m--1346.542154mNRNH 24, Uttar Pradesh
51BHDHBahadurpur Halt•X  13:17 13:19-13:18 13:20-1m--1352.135154mNRNH 24, Uttar Pradesh
52TLHTilhar  13:25 13:27-13:26 13:29-1 2m--1356.258163mNRTilhar, Uttar Pradesh
53MKMiranpur Katra  13:36 13:39-13:37 13:41-1 2m--1366.039162mNRShahjahanpur, Uttar Pradesh
54BLPUBilpur  13:46 13:52-13:47 13:54-1 2m--1373.147161mNRFatehganj, Uttar Pradesh
55TSATisuaXO  13:56 14:03-13:57 14:04-1m--1380.251165mNRNational Highway 24, Uttar Pradesh
56PMRPitambarpur  14:07 14:14-14:08 14:16-1 2m--1388.757171mNRPitambarpur, Uttar Pradesh
57RYSRasuriya  14:18 14:26-14:19 14:28-1 2m--1398.150174mNRNH 24, Uttar Pradesh
58CHTIChanehti Junction  14:28 14:36-14:29 14:38-1 2m--1404.83168mNRBareilly, Uttar Pradesh
59BEBareilly Junction (4)  15:10 15:50--31408.6-174mNRBareilly, Uttar Pradesh
Scroll to Top
Scroll to Bottom